Date,TemperatureHighF,TemperatureAvgF,TemperatureLowF,DewpointHighF,DewpointAvgF,DewpointLowF,HumidityHigh,HumidityAvg,HumidityLow,PressureMaxIn,PressureMinIn,WindSpeedMaxMPH,WindSpeedAvgMPH,GustSpeedMaxMPH,PrecipitationSumIn
2013-10-1,77.4,61.9,49.1,58.3,53.3,48.6,98,77,41,29.87,29.75,8,1,8,0.00
2013-10-2,79.9,65.4,51.6,62.6,56.0,51.1,98,75,43,29.87,29.78,9,1,10,0.00
2013-10-3,75.6,64.6,53.4,63.5,55.3,44.2,98,76,35,29.99,29.87,6,0,6,0.00
2013-10-4,82.6,68.5,58.3,69.6,60.9,57.7,98,80,44,29.93,29.84,10,1,11,0.00
2013-10-5,78.1,68.9,61.3,67.6,63.1,59.0,98,83,54,29.96,29.87,11,2,11,0.00
2013-10-6,66.9,65.2,63.7,66.4,64.6,63.0,98,98,95,29.93,29.87,11,4,11,0.04
2013-10-7,72.0,64.7,52.5,70.9,63.8,44.1,98,97,72,29.87,29.57,23,4,24,0.54
2013-10-8,65.1,55.5,46.2,46.9,41.9,35.2,95,63,35,30.17,29.84,12,2,13,0.00
2013-10-9,59.7,52.4,44.6,44.1,39.0,34.3,77,61,44,30.22,30.14,15,2,15,0.00
2013-10-10,60.1,55.1,50.2,52.0,47.7,40.8,92,76,68,30.14,29.93,15,4,15,0.00
2013-10-11,63.3,60.6,56.5,58.8,54.5,49.6,85,80,73,29.93,29.87,14,4,15,0.00
2013-10-12,72.1,62.5,55.4,55.2,41.5,22.5,80,50,17,30.11,29.90,23,5,23,0.00
2013-10-13,63.3,56.3,48.6,50.5,47.1,43.5,94,72,49,30.22,30.11,16,4,16,0.00
2013-10-14,68.4,54.9,43.9,53.6,45.2,40.5,98,74,37,30.19,30.08,8,1,8,0.00
2013-10-15,72.3,56.9,44.8,61.2,46.0,39.0,98,71,41,30.11,29.96,11,1,12,0.00
2013-10-16,65.5,56.9,47.1,58.5,51.8,42.6,96,84,63,29.96,29.75,7,0,7,0.00
2013-10-17,74.8,63.9,59.2,64.4,59.1,51.4,98,86,46,29.75,29.52,19,2,19,0.00
2013-10-18,65.1,56.3,43.9,62.6,43.0,35.6,98,64,35,29.84,29.52,11,2,12,0.04
2013-10-19,63.0,50.9,39.9,50.5,40.7,33.8,97,72,35,29.84,29.60,12,2,13,0.08
2013-10-20,61.3,49.9,41.2,49.6,37.0,27.1,98,65,29,29.90,29.60,11,2,11,0.00
2013-10-21,65.8,49.3,37.0,48.7,35.2,29.1,98,65,26,29.99,29.81,16,1,16,0.00
2013-10-22,63.0,49.1,41.5,53.4,40.5,32.7,98,74,47,29.81,29.60,11,1,11,0.00
2013-10-23,53.8,43.0,35.6,36.5,31.0,26.2,84,64,36,29.66,29.49,9,1,10,0.04
2013-10-24,52.7,40.9,33.6,36.0,27.5,19.6,92,62,33,29.84,29.60,10,2,13,0.00
2013-10-25,52.0,40.3,30.6,33.3,26.3,22.1,87,60,33,30.05,29.81,14,2,14,0.00
2013-10-26,53.4,41.4,29.5,37.9,26.6,20.8,96,61,30,30.05,29.72,16,2,16,0.00
2013-10-27,57.4,45.9,35.1,30.4,26.2,22.6,71,47,29,29.96,29.66,22,2,22,0.00
2013-10-28,60.4,44.8,30.0,35.6,27.9,24.8,91,56,28,30.14,29.93,10,1,14,0.00
2013-10-29,57.6,44.6,35.2,31.5,26.1,22.5,69,50,29,30.22,30.14,11,2,12,0.00
2013-10-30,56.1,45.5,34.3,47.1,39.4,25.9,97,79,67,30.17,30.02,8,0,8,0.00
2013-10-31,61.3,54.9,44.4,60.4,54.0,43.7,98,97,92,30.05,29.63,12,2,12,0.04